Tracking 35048 objects as of 19-Aug-2026
HD Live streaming from Space Station
objects crossing your sky now

PEARL-1B

Track PEARL-1B now!
10-day predictions
PEARL-1B is classified as:


NORAD ID: 68980
Int'l Code: 2026-100A
Launch date: May 3, 2026
Source: (TWN)
Launch site: AIR FORCE WESTERN TEST RANGE (AFWTR)

Uplink (MHz):
Downlink (MHz): 401.620
Beacon (MHz):
Mode: 9k6 GFSK
Call sign: PEARLB
Status: Active

Your satellite tracking list
Your tracking list is empty




NASA's NSSDC Master Catalog

Two Line Element Set (TLE):
1 68980U 26100A   26230.67147888  .00001740  00000-0  18254-3 0  9997
2 68980  97.7276 126.7499 0006025 309.9382  50.1306 14.90777116 15998
Source of the keplerian elements: AFSPC